Back to catalog

BEIJING 3B

AliveScienceSSO
NORAD 53587·PAYLOAD·🇨🇳 China

Launched Aug 24, 2022 from Taiyuan Satellite Launch Center

Loading…

Next Passes (next 24 hours)

TLE

FreshSource: Space-Track

Epoch: Sep 14, 2026, 15:24 UTC

1 53587U 22103A   26257.64192664  .00000851  00000-0  10042-3 0  9990
2 53587  97.7950 333.4541 0026487 115.6465 244.7492 14.87038488220383

Track BEIJING 3B in real time with AllMySat

Download on the App Store